User: anonymous
Location: Fort Wayne
(41.1310°N, 85.1290°W)
Time: 02:11:14
(UTC-04:00)
Language:

BREEZE-M DEB (TANK) - Orbit

View from above orbital plane
View from above orbital plane
View from above satellite
View from above satellite

Ground track
Ground track

The orbit data is extracted from the following two-line orbital elements,

1 27821U 03024B   14264.54784286  .00004766  00000-0  54273-3 0  4891
2 27821 049.5848 081.3313 5009597 356.8243 013.0734 05.63158030223405
Epoch (UTC): 21 September 2014 13:08:53
Eccentricity: 0.5009597
inclination: 49.5848°
perigee height: 281 km
apogee height: 13652 km
right ascension of ascending node: 81.3313°
argument of perigee: 356.8243°
revolutions per day: 5.63158030
mean anomaly at epoch: 13.0734°
orbit number at epoch: 22340

The dashed part of the orbit path shows where the satellite is in the earth's shadow,  

DLR